星链-1693 (STARLINK-1693 )

导读 | 星芒AI

STARLINK-1693 是 SpaceX Starlink 项目中的一颗低轨通信卫星,属于第 17 批部署的星链卫星群。该卫星于 2022 年发射,运行在约 550 公里的轨道高度,旨在为全球提供高速互联网服务。作为星链计划的一部分,STARLINK-1693 采用先进通信技术,支持宽带连接,尤其服务于传统网络难以覆盖的偏远地区。该卫星具备自动避撞功能,有助于降低在轨碰撞风险,提升空间安全。

基本信息
目录编号:
46543
目录名称:
STARLINK-1693
国际标识:
2020-070M
轨道中心:
EARTH
卫星名称:
星链-1693
卫星全名:
星链-1693 (STARLINK-1693 )
卫星状态:
已陨落 最后检测时间 2025-08-16
发射日期:
2020-10-06 UTC
国别 :
美国 (US)
星等 :
--
轨道信息
数据来源 国际轨道数据
星历时间: 2025-08-16T15:43:34+0800
轨道信息已过期74天
半长轴: 6529.568km
偏心率: 0.0006112
轨道倾角: 53.017°
近地点辐角 309.376°
升交点赤经 288.504°
平近点角 100.523°
近地点: 147.442km
远地点: 155.424km
周期: 87.516分钟
每日圈数: 16.454176
详细信息
固有亮度:
5
最大亮度:
2.5
卫星平台:
Starlink V1.0
覆盖范围:
全球
运营商:
太空探索技术公司
运营商所在国:
美国
制造商(研发单位):
太空探索技术公司
制造商所在国:
美国
使用方式:
暂无
卫星简介
星链(Starlink)计划是由太空探索技术公司(SpaceX)提出的一个巨型低轨卫星互联网星座项目,计划在2019年至2024年间在太空搭建由约1.2万颗卫星组成的“星链”网络,其中1584颗将部署在地球上空550千米处的近地轨道,并从2020年开始工作。该卫星仍在工作。